Regional Weather Roundup
Issued by NWS

Home | Current Version | Previous Version | Graphics & Text | Print | Product List | Glossary On
Versions: 1 2 3 4 5 6 7 8 9 10 11 12 13 14 15 16 17 18 19 20 21 22 23 24 25 26 27 28 29 30 31 32 33 34 35 36 37 38 39 40 41 42 43 44 45 46 47 48 49 50
000
ASUS45 KCYS 042010
RWRWY

WYOMING REGIONAL WEATHER ROUNDUP
NATIONAL WEATHER SERVICE CHEYENNE WY
200 PM MDT FRI SEP 04 2015

NOTE:  "FAIR" INDICATES FEW OR NO CLOUDS BELOW 12,000 FEET
WITH NO SIGNIFICANT WEATHER AND/OR OBSTRUCTIONS TO VISIBILITY.

WYZ001-042100-
YELLOWSTONE NATIONAL PARK

CITY           SKY/WX    TMP DP  RH WIND       PRES   REMARKS
LK YELLOWSTONE   N/A     64  28  25 VRB7      30.03F
W YELLOWSTONE  NOT AVBL

$$
WYZ002>013-054>058-071-098>099-042100-
NORTHERN WYOMING

CITY           SKY/WX    TMP DP  RH WIND       PRES   REMARKS
JACKSON        SUNNY     75  30  19 S14G29    29.92F
CODY           FAIR      66  48  52 NE5       29.90F
GREYBULL       FAIR      76  45  33 VRB7      29.82F
WORLAND        FAIR      76  46  34 N6        29.83F
SHERIDAN       FAIR      77  47  34 N8        29.86F
BUFFALO        FAIR      78  45  30 VRB7G17   29.91F
GILLETTE       FAIR      81  48  31 VRB6      29.88F
HULETT         FAIR      81  50  34 SE3       29.90F
NEWCASTLE      FAIR      86  37  17 MISG      29.88F

$$
WYZ014>020-022>026-101>103-042100-
CENTRAL WYOMING

CITY           SKY/WX    TMP DP  RH WIND       PRES   REMARKS
BIG PINEY      FAIR      77  25  14 S21G32    30.00F
PINEDALE       FAIR      73  27  17 S10G24    30.01F
DUBOIS         MOCLDY    72  23  16 SW9G21    29.98F
LANDER         FAIR      84  28  13 SW10      29.87F
RIVERTON       FAIR      86  27  11 S20G29    29.88F
CASPER         FAIR      86  31  13 S20       29.91F
DOUGLAS        FAIR      87  41  19 NW9       29.92F

$$
WYZ021-027>030-104>119-042100-
SOUTHERN WYOMING

CITY           SKY/WX    TMP DP  RH WIND       PRES   REMARKS
EVANSTON       FAIR      77  26  15 SW25G39   29.99F
KEMMERER       FAIR      73  21  14 S18G30    30.02F
FORT BRIDGER   PTCLDY    77  23  13 SW15G23   30.01F
ROCK SPRINGS   FAIR      77  36  22 S30G37    30.00F
DIXON          FAIR      78  39  24 S14G22    30.07F
RAWLINS        FAIR      80  35  19 S20G30    30.04F
SARATOGA       MOCLDY    75  37  25 SE7       30.09F
LARAMIE        FAIR      73  37  27 SW12      30.12S
CHEYENNE       FAIR      84  35  17 VRB5      30.03F
TORRINGTON     FAIR      89  42  19 VRB7      29.87F
PINE BLUFFS    FAIR      88  32  13 W3        29.97S

$$



USA.gov is the U.S. government's official web portal to all federal, state and local government web resources and services.